Hourly Data Report for October 28, 2014

All times are specified in Local Standard Time (LST). Add 1 hour to adjust for Daylight Saving Time where and when it is observed.

BAKER LAKE A
NUNAVUT

64°17'56.000" N
96°04'40.000" W
18.60 m
2300503
71926
YBK

Download Data

Hourly Data (October 2014)
Hourly Data Report for October 28, 2014
Temp Definition
°C
Dew Point Temp Definition
°C
Rel Hum Definition
%
Wind Dir Definition
10's deg

Wind Spd Definition
km/h
Visibility Definition
km
Stn Press Definition
kPa
Hmdx Definition


Wind Chill Definition


Weather Definition


TIME
00:00 Legend Double Dagger -9.0 -10.5 89 33 13 24.1 101.78   -15 Cloudy
01:00 Legend Double Dagger -9.2 -10.7 89 32 6 24.1 101.82   -13 LegendNANA
02:00 Legend Double Dagger -9.4 -10.9 89 2 8 24.1 101.83   -14 LegendNANA
03:00 Legend Double Dagger -9.7 -11.3 88 33 10 24.1 101.86   -15 Cloudy
04:00 Legend Double Dagger -9.8 -11.1 90 33 13 24.1 101.85   -16 LegendNANA
05:00 Legend Double Dagger -10.2 -11.7 89 30 15 24.1 101.86   -17 Snow
06:00 Legend Double Dagger -10.6 -12.4 87 30 9 24.1 101.87   -16 Snow
07:00 Legend Double Dagger -10.5 -12.4 86 30 10 24.1 101.89   -16 Snow
08:00 Legend Double Dagger -10.5 -12.6 85 27 9 32.2 101.90   -15 Snow
09:00 Legend Double Dagger -10.1 -12.3 84 28 8 32.2 101.92   -15 Snow
10:00 Legend Double Dagger -9.6 -12.0 83 30 13 32.2 101.92   -16 Snow
11:00 Legend Double Dagger -9.2 -11.6 83 30 12 32.2 101.93   -15 Snow
12:00 Legend Double Dagger -9.1 -11.6 82 32 12 32.2 101.94   -15 Snow
13:00 Legend Double Dagger -8.9 -11.8 80 32 8 32.2 101.95   -13 Snow
14:00 Legend Double Dagger -10.4 -12.9 82 32 10 32.2 101.94   -16 LegendNANA
15:00 Legend Double Dagger -11.9 -14.1 84 32 10 32.2 101.92   -18 Mainly Clear
16:00 Legend Double Dagger -11.1 -13.2 85 36 2 32.2 101.92   -12 LegendNANA
17:00 Legend Double Dagger -10.3 -12.4 85 30 5 24.1 101.91   -13 LegendNANA
18:00 Legend Double Dagger -10.3 -12.4 85 36 3 24.1 101.91   -12 Cloudy
19:00 Legend Double Dagger -10.5 -12.3 87 36 1 24.1 101.86   -11 LegendNANA
20:00 Legend Double Dagger -10.9 -12.7 87 33 4 24.1 101.83   -13 LegendNANA
21:00 Legend Double Dagger -10.1 -11.9 87 36 1 24.1 101.79   -11 Snow
22:00 Legend Double Dagger -9.5 -11.1 88 18 11 24.1 101.76   -15 Snow
23:00 Legend Double Dagger -10.8 -12.1 90 18 9 24.1 101.71   -16 LegendNANA

Notes on Data Quality.

Legend

  • E = Estimated
  • M = Missing
  • NA = Not Available
  • ‡ = Partner data that is not subject to review by the National Climate Archives
Date modified: